Regional Weather Roundup
Issued by NWS

Home | Current Version | Previous Version | Graphics & Text | Print | Product List | Glossary Off
Versions: 1 2 3 4 5 6 7 8 9 10 11 12 13 14 15 16 17 18 19 20 21 22 23 24 25 26 27 28 29 30 31 32 33 34 35 36 37 38 39 40 41 42 43 44 45 46 47 48 49 50

000
ASUS43 KDTX 241810
RWRMI
MICHIGAN HOURLY REGIONAL WEATHER ROUNDUP
NATIONAL WEATHER SERVICE DETROIT/PONTIAC MI
200 PM EDT SUN SEP 24 2017

NOTE: "FAIR" INDICATES FEW OR NO CLOUDS BELOW 12,000 FEET WITH NO
SIGNIFICANT WEATHER AND/OR OBSTRUCTION TO VISIBILITY.

MIZ047>049-052>055-059>063-066>070-074>076-081>083-241900-
SOUTHEAST LOWER MICHIGAN

CITY           SKY/WX    TMP DP  RH WIND       PRES   REMARKS
ADRIAN         SUNNY     89  55  31 S6        30.13F
6HR MIN TEMP:  59; 6HR MAX TEMP:  90;

ALMA           SUNNY     92  52  25 SE9       30.11F
ANN ARBOR      SUNNY     89  61  38 E10       30.13F
BAD AXE        SUNNY     88  63  43 S6        30.14F
CARO           SUNNY     91  59  33 S6        30.12F HX  90
DETROIT CITY   SUNNY     87  65  47 SE9       30.14F
6HR MIN TEMP:  67; 6HR MAX TEMP:  88;

DETROIT        MOSUNNY   87  62  43 SE8       30.14F
6HR MIN TEMP:  66; 6HR MAX TEMP:  88;

FLINT          SUNNY     90  59  35 S10       30.13F
6HR MIN TEMP:  59; 6HR MAX TEMP:  90;

GROSSE ILE     SUNNY     81  68  65 S6        30.13F
6HR MIN TEMP:  65; 6HR MAX TEMP:  81;

HILLSDALE      MOSUNNY   88  57  35 SE5       30.14F
HOWELL         SUNNY     89  55  31 SE8       30.14F
6HR MIN TEMP:  62; 6HR MAX TEMP:  89;


CITY           SKY/WX    TMP DP  RH WIND       PRES   REMARKS
JACKSON        SUNNY     89  56  32 SE10      30.13F
6HR MIN TEMP:  62; 6HR MAX TEMP:  90;

LAMBERTVILLE   SUNNY     89  63  42 NE5       30.13S
6HR MIN TEMP:  62; 6HR MAX TEMP:  89;

LANSING        SUNNY     91  58  32 SE8       30.12F HX  90
6HR MIN TEMP:  63; 6HR MAX TEMP:  91;

LAPEER         FAIR      89  58  35 S9        30.15F
6HR MIN TEMP:  60; 6HR MAX TEMP:  90;

MASON          SUNNY     90  57  32 SE7       30.13F
MONROE         SUNNY     86  60  40 SE5       30.13F
6HR MIN TEMP:  62; 6HR MAX TEMP:  86;

MT. CLEMENS    SUNNY     85  69  58 E7        30.13F
6HR MIN TEMP:  63; 6HR MAX TEMP:  85;

PONTIAC        SUNNY     87  60  40 VRB5      30.14F
6HR MIN TEMP:  64; 6HR MAX TEMP:  88;

PORT HOPE        N/A     75  67  76 E16       30.12F
6HR MIN TEMP:  68; 6HR MAX TEMP:  86;

PORT HURON     SUNNY     90  64  43 S5        30.14F HX  91
TRI CITIES     SUNNY     91  62  37 VRB7      30.12F HX  91
6HR MIN TEMP:  64; 6HR MAX TEMP:  91;

MIDLAND        FAIR      92  59  33 S6        30.11F HX  91
6HR MIN TEMP:  59; 6HR MAX TEMP:  92;

TROY           SUNNY     90  60  36 SE5       30.15F
SAGINAW HB     SUNNY     90  59  35 S12       30.11F
$$
MIZ043>046-050>051-056>058-064>065-071>073-077>080-241900-
SOUTHWEST LOWER MICHIGAN

CITY           SKY/WX    TMP DP  RH WIND       PRES   REMARKS
BATTLE CREEK   SUNNY     90  57  32 SE8       30.13F
6HR MIN TEMP:  63; 6HR MAX TEMP:  90;

BENTON HARBOR  SUNNY     89  55  31 SE8       30.09F
6HR MIN TEMP:  66; 6HR MAX TEMP:  91;

BIG RAPIDS     SUNNY     89  53  28 SW6       30.10F
6HR MIN TEMP:  58; 6HR MAX TEMP:  89;

COLDWATER      SUNNY     87  54  32 S6        30.13F
6HR MIN TEMP:  61; 6HR MAX TEMP:  88;

FREMONT        FAIR      92  59  33 SW9       30.09F HX  91
HOLLAND        SUNNY     92  61  35 SW7       30.10F HX  92
6HR MIN TEMP:  64; 6HR MAX TEMP:  92;

GRAND RAPIDS   MOSUNNY   92  55  28 S9        30.10F HX  90
6HR MIN TEMP:  64; 6HR MAX TEMP:  92;

IONIA          FAIR      91  55  29 S9        30.10F
6HR MIN TEMP:  59; 6HR MAX TEMP:  91;

KALAMAZOO      SUNNY     91  53  27 MISG      30.12F
6HR MIN TEMP:  60; 6HR MAX TEMP:  91;

LUDINGTON      SUNNY     80  65  58 W8        30.08F
6HR MIN TEMP:  63; 6HR MAX TEMP:  87;

MARSHALL       SUNNY     89  56  32 SE8       30.12F
6HR MIN TEMP:  59; 6HR MAX TEMP:  89;

MOUNT PLEASANT SUNNY     93  54  26 SE6       30.10F HX  90
6HR MIN TEMP:  63; 6HR MAX TEMP:  93;

MUSKEGON       MOSUNNY   87  61  41 SW9       30.11S
6HR MIN TEMP:  66; 6HR MAX TEMP:  88;

SOUTH HAVEN    SUNNY     90  53  27 S5        30.09F
$$
MIZ016>042-241900-
NORTHERN LOWER MICHIGAN

CITY           SKY/WX    TMP DP  RH WIND       PRES   REMARKS
ALPENA         SUNNY     90  64  42 S10       30.11F HX  91
6HR MIN TEMP:  64; 6HR MAX TEMP:  90;

BELLAIRE       SUNNY     89  61  38 S3        30.08F
6HR MIN TEMP:  59; 6HR MAX TEMP:  89;

CADILLAC       SUNNY     91  49  23 SE7       30.12F
CHARLEVOIX     SUNNY     90  63  40 SW8       30.11F HX  90
FRANKFORT      SUNNY     87  65  48 SW6       30.08F
GAYLORD        SUNNY     86  61  42 S9        30.13F
6HR MIN TEMP:  59; 6HR MAX TEMP:  87;

GRAYLING       SUNNY     89  56  32 SE8       30.14S
6HR MIN TEMP:  56; 6HR MAX TEMP:  90;

HARBOR SPRINGS SUNNY     88  64  43 W5        30.08F
HOUGHTON LAKE  SUNNY     88  58  36 SW8       30.14F
6HR MIN TEMP:  61; 6HR MAX TEMP:  89;

MANISTEE       SUNNY     91  64  40 VRB7      30.07F HX  92
OSCODA         SUNNY     89  59  36 S6        30.12F
6HR MIN TEMP:  65; 6HR MAX TEMP:  90;

PELLSTON       SUNNY     90  65  43 S8        30.09F HX  92
6HR MIN TEMP:  58; 6HR MAX TEMP:  90;

ROGERS CITY    SUNNY     89  64  43 S5        30.11F HX  90
TRAVERSE CITY  SUNNY     92  60  34 VRB3      30.06F HX  91
6HR MIN TEMP:  67; 6HR MAX TEMP:  92;

$$
MIZ007>008-015-241900-
EASTERN UPPER MICHIGAN

CITY           SKY/WX    TMP DP  RH WIND       PRES   REMARKS
KINROSS        SUNNY     86  68  54 VRB7      30.09F
6HR MIN TEMP:  63; 6HR MAX TEMP:  87;

MACKINAC ISLAN SUNNY     83  63  50 W5        30.10S
6HR MIN TEMP:  68; 6HR MAX TEMP:  83;

NEWBERRY       SUNNY     83  67  59 S12       30.07F
6HR MIN TEMP:  67; 6HR MAX TEMP:  83;

S. S. MARIE    SUNNY     87  68  52 S8        30.07F HX  90
6HR MIN TEMP:  64; 6HR MAX TEMP:  87;

MUNISING         N/A     88  70  55 S9        30.02F HX  93
6HR MIN TEMP:  71; 6HR MAX TEMP:  88;

$$
MIZ004>006-011>014-085-241900-
CENTRAL UPPER MICHIGAN

CITY           SKY/WX    TMP DP  RH WIND       PRES   REMARKS
MANISTIQUE     SUNNY     74  67  80 S10G17    30.07F
6HR MIN TEMP:  65; 6HR MAX TEMP:  74;

ESCANABA       SUNNY     79  69  71 SE9       30.04F
6HR MIN TEMP:  60; 6HR MAX TEMP:  79;

MENOMINEE      SUNNY     86  68  54 S8        30.05F
6HR MIN TEMP:  63; 6HR MAX TEMP:  86;

SAWYER-GWINN   SUNNY     86  64  48 SW15      30.04F
$$
MIZ001>003-009>011-084-241900-
WESTERN UPPER MICHIGAN

CITY           SKY/WX    TMP DP  RH WIND       PRES   REMARKS
IRON MOUNTAIN  SUNNY     87  64  46 S8        30.03F
6HR MIN TEMP:  64; 6HR MAX TEMP:  88;

HOUGHTON       SUNNY     87  64  46 SW10      29.97F
6HR MIN TEMP:  67; 6HR MAX TEMP:  87;

COPPER HARBOR    N/A     84  65  52 SW8       29.96F
6HR MIN TEMP:  72; 6HR MAX TEMP:  84;

IRONWOOD       SUNNY     85  62  46 SW17G28   29.97F
6HR MIN TEMP:  71; 6HR MAX TEMP:  85;

$$

ABBREVIATIONS USED IN REMARKS
   TC - TEMPERATURE IN CELSIUS
  WCI - WIND CHILL INDEX
   HX - HEAT INDEX
  VSB - VISIBILITY





USA.gov is the U.S. government's official web portal to all federal, state and local government web resources and services.